Location: Blackwall
(51.5097°N, 0.0016°W)
Time: 23:28:53
(UTC+00:00)

ARIANE 5 R/B - Pass Details

Date: 15 May 2026
Orbit: 614 x 648 km, 98.0° (Epoch: 14 September)

Event Time Altitude Azimuth Distance (km) Brightness Sun altitude
Exits shadow 22:52:41 35° 140° (SE) 1,040 3.2 -18.1°
Maximum altitude 22:54:25 64° 72° (ENE) 714 2.8 -18.1°
Drops below altitude 10° 22:58:51 10° 351° (N) 2,055 6.5 -18.3°
Sets 23:01:06 0° 348° (NNW) 2,971 7.8 -18.4°
